Location: *
(44.1392°N, 4.8079°E)
Time: 08:09:42
(UTC+00:00)

FALCON 9 DEB - Pass Details

Date: 21 June 2021
Orbit: 422 x 432 km, 53.0° (Epoch: 31 July)

Event Time Altitude Azimuth Distance (km) Brightness Sun altitude
Rises 00:46:20 0° 306° (NW) 2,394 7.1 -20.9°
Reaches altitude 10° 00:48:30 10° 312° (NW) 1,523 6.2 -20.8°
Maximum altitude 00:51:49 46° 28° (NNE) 580 4.1 -20.6°
Drops below altitude 10° 00:55:06 10° 103° (ESE) 1,510 5.9 -20.4°
Sets 00:57:14 0° 110° (ESE) 2,371 6.9 -20.3°
